GFSFLT1_sfc_thetae_003.txt.gz
Theta_e
316 320 325 328 327 326 323 322 316 315 319 316 316 314 312 311 308 307 308 309 310 311 310 310 309 308 307 306 304 304 305 304
315 319 324 324 325 322 321 319 317 317 315 315 316 315 313 308 307 308 308 308 309 310 308 308 308 307 307 306 304 302 302 304
312 318 323 325 324 325 321 319 315 315 316 317 317 315 310 307 306 306 306 307 307 307 308 308 308 307 307 306 303 300 302 303
311 315 319 319 317 317 317 315 314 313 313 312 310 309 309 307 305 305 305 307 307 307 308 308 308 307 306 305 303 300 298 300
308 308 309 311 309 310 311 310 309 307 308 309 308 306 305 305 304 305 306 307 307 306 307 307 307 307 304 303 301 300 298 294
304 304 305 306 307 308 307 307 305 305 306 306 305 304 304 305 305 305 305 306 305 305 305 305 305 304 303 302 300 297 296 293
306 307 307 305 306 306 306 304 302 304 304 303 304 303 302 302 303 303 303 304 305 305 304 304 304 303 301 299 298 295 294 293
305 306 306 305 305 304 302 302 301 302 302 302 302 301 301 300 300 300 300 300 301 303 303 302 302 300 298 299 297 295 294 292
306 305 303 302 301 301 301 301 299 299 299 298 297 296 295 295 295 296 296 297 298 301 302 300 299 298 298 297 296 295 295 293
304 302 302 301 300 300 300 296 295 295 295 295 295 295 295 295 295 296 296 298 299 300 299 299 298 298 297 297 295 294 294 293
301 301 301 302 301 298 296 295 294 294 295 295 294 295 295 296 296 295 296 298 299 299 298 297 297 298 296 295 294 293 292 293
299 299 300 301 298 295 294 293 294 294 294 294 295 295 295 296 295 295 296 297 298 297 297 297 296 295 294 294 293 292 291 292
298 297 296 295 294 294 293 294 294 293 293 293 294 295 295 294 294 294 295 295 295 295 295 295 295 294 293 292 291 291 290 289
295 293 292 292 293 293 294 293 291 292 292 292 293 294 294 294 294 294 294 294 294 295 295 293 292 292 291 290 290 289 288 288
295 292 292 292 293 293 293 292 292 292 291 291 292 293 293 293 293 293 294 294 294 294 293 293 292 289 289 289 288 288 287 286
293 291 291 292 292 293 292 292 292 292 291 291 292 293 294 293 293 293 293 294 294 293 292 288 288 288 287 288 287 287 287 286
294 292 291 291 292 292 291 291 291 291 291 291 292 293 293 293 292 292 293 293 294 290 290 288 287 286 286 286 286 285 283 282
294 292 291 291 292 291 291 290 290 290 290 290 291 292 292 292 291 291 292 292 293 292 288 287 287 287 284 283 282 282 281 281
294 294 292 291 291 291 290 289 289 288 289 290 290 291 291 291 291 290 292 292 291 290 287 286 286 284 282 282 281 282 281 280

GFSFLT1_sfc_thetae_006.txt.gz
Theta_e
323 323 326 329 332 332 331 329 329 330 330 324 321 319 317 317 315 315 314 315 315 318 316 315 313 312 311 310 309 310 308 308
324 327 329 330 332 331 330 328 329 329 326 323 321 320 318 315 315 314 313 313 313 313 313 313 312 311 311 311 309 308 307 308
323 326 328 329 329 329 328 328 328 325 323 322 323 324 318 314 314 313 312 311 311 311 313 312 312 310 311 310 308 305 304 306
322 325 327 329 329 329 328 326 322 320 319 319 317 317 316 316 314 313 312 312 311 311 311 311 311 310 308 308 307 304 301 302
324 325 327 328 329 328 323 319 317 315 315 315 314 312 311 310 311 312 311 312 311 310 310 311 310 309 307 307 305 304 301 297
319 320 321 319 318 318 317 314 313 313 313 314 312 310 310 310 310 309 309 310 310 309 309 309 308 307 307 306 304 301 300 298
314 315 314 313 315 314 314 312 311 311 311 311 310 308 306 304 302 301 301 301 301 303 303 307 308 308 307 305 304 300 299 297
310 310 310 311 312 312 311 310 308 310 309 307 305 302 301 299 299 298 298 298 299 300 302 304 306 307 305 303 301 299 298 296
311 311 312 311 311 310 310 309 307 306 303 301 301 301 300 300 300 299 299 298 300 303 304 306 306 304 300 300 301 299 297 296
312 312 311 310 309 309 309 306 302 301 301 300 301 301 300 300 300 300 299 300 300 302 305 304 303 301 300 300 299 297 296 295
312 310 309 309 309 308 306 304 302 299 299 301 300 300 300 300 300 299 299 299 300 301 302 302 300 300 300 299 297 296 294 294
310 309 309 309 307 304 303 301 300 298 300 300 300 301 300 300 299 298 298 299 299 299 300 300 299 298 298 297 295 294 293 293
310 308 308 307 304 302 301 301 300 300 299 299 299 300 299 298 298 297 298 298 298 298 298 298 298 297 297 295 293 293 293 292
307 306 305 303 301 300 300 301 299 298 297 298 299 299 298 297 297 297 297 297 298 298 298 297 296 295 294 293 294 293 292 292
305 303 302 301 300 300 301 299 299 298 297 297 297 297 297 297 297 297 297 297 297 297 297 297 296 294 293 293 292 292 292 291
302 301 301 300 300 301 300 299 298 298 296 296 296 297 298 297 297 296 296 297 297 297 295 294 294 293 291 291 291 292 291 289
302 302 301 300 299 300 299 298 297 297 296 296 296 296 296 296 296 296 296 296 296 296 296 295 294 292 286 285 285 288 288 287
303 303 302 300 299 300 298 297 297 296 295 295 295 295 295 295 295 295 294 294 295 295 295 294 293 292 284 283 282 287 287 285
304 304 302 298 299 299 299 296 295 294 294 294 294 294 294 294 294 294 294 295 294 293 293 293 292 289 282 281 281 286 286 285

GFSFLT1_sfc_thetae_009.txt.gz
Theta_e
324 325 325 329 332 332 332 331 330 331 331 328 324 322 321 320 318 318 318 318 317 318 318 317 315 314 314 314 313 313 311 310
326 326 328 329 332 332 332 330 330 330 327 324 322 321 320 318 317 317 317 316 315 315 315 315 315 313 313 313 312 310 308 308
324 326 328 330 331 332 331 330 330 327 324 323 324 323 319 317 317 316 316 315 315 314 314 313 313 311 312 311 310 307 305 305
324 326 328 330 330 330 329 329 326 324 323 321 319 319 318 316 315 315 314 314 314 313 313 312 311 310 307 309 307 306 301 302
325 326 326 327 329 330 327 325 322 320 318 318 317 315 313 313 313 313 312 312 311 309 308 308 309 308 307 306 306 305 303 299
324 326 328 328 328 327 324 321 317 317 317 318 315 313 312 312 309 306 305 305 304 303 303 304 306 306 307 307 306 305 302 300
324 325 325 323 323 321 319 316 315 315 315 315 313 309 305 304 302 301 301 301 301 302 302 303 304 304 306 306 305 303 301 300
318 318 316 316 316 316 316 314 312 314 313 309 306 305 303 302 301 300 300 300 300 301 303 304 304 305 306 304 302 301 300 298
314 314 314 314 315 315 314 313 312 310 306 305 304 303 302 302 301 301 300 299 300 301 303 304 304 304 303 302 301 301 300 298
312 313 314 314 314 314 314 313 309 306 305 305 303 303 303 302 301 301 300 300 299 300 302 303 304 303 302 302 300 299 298 297
313 313 314 315 314 314 314 311 306 305 305 303 303 303 303 303 302 300 299 300 300 300 300 301 301 301 301 300 298 298 296 296
313 314 315 314 314 313 310 307 306 304 303 303 302 302 302 302 301 299 299 299 299 298 298 299 299 298 299 298 297 297 295 294
314 314 313 312 312 310 307 306 305 304 303 302 302 302 301 300 299 299 299 298 298 298 298 298 297 297 297 295 295 294 294 293
314 314 311 311 310 308 306 305 304 303 301 301 301 301 301 299 299 299 298 298 297 298 298 297 296 297 296 296 294 294 293 293
313 312 311 311 309 306 305 304 304 301 300 300 300 300 300 299 299 298 297 297 297 297 297 297 296 295 294 293 293 293 293 292
312 310 310 310 308 305 304 305 302 301 300 299 299 300 300 299 298 298 297 297 297 297 296 296 296 295 293 292 292 292 291 290
310 310 309 307 306 304 304 303 301 301 299 299 299 299 298 298 297 297 296 296 296 296 295 295 295 294 286 285 284 289 289 289
309 308 308 307 306 305 303 301 301 299 298 298 297 297 296 296 297 296 295 295 296 295 295 294 294 294 286 283 282 286 288 288
309 309 308 308 307 304 303 301 299 298 297 296 296 296 295 295 295 295 295 296 295 294 294 294 293 289 284 282 282 286 288 287

GFSFLT1_sfc_thetae_012.txt.gz
Theta_e
320 321 325 329 328 328 331 331 330 328 330 325 324 321 320 319 317 317 317 315 317 315 315 313 312 311 310 310 309 308 307 305
323 323 325 329 329 328 329 329 329 329 326 320 320 318 318 316 315 316 315 314 314 313 312 312 312 309 309 308 307 305 304 303
323 324 324 327 328 328 329 328 329 329 325 323 323 318 316 315 315 314 314 314 313 311 311 309 309 307 307 306 303 302 301 301
322 322 325 329 327 328 329 326 328 324 322 320 318 317 316 314 313 313 313 313 311 309 308 307 307 306 304 303 302 301 298 298
322 324 325 328 326 329 327 327 321 321 321 317 316 312 309 311 311 309 307 306 304 302 302 303 302 304 303 303 302 301 299 295
322 324 325 327 326 328 326 321 318 318 318 317 314 311 311 308 304 303 302 302 302 302 301 302 301 301 301 303 303 301 299 296
323 325 325 324 326 325 320 316 315 316 315 313 310 306 303 302 300 299 299 300 300 301 302 301 302 302 301 302 300 298 297 295
322 322 323 323 321 318 316 313 312 314 312 307 306 304 302 301 300 299 298 297 298 299 299 300 301 302 302 300 298 297 296 294
321 321 319 318 316 315 314 312 311 311 307 304 305 304 302 301 301 299 298 297 297 298 299 300 301 301 299 299 298 297 297 295
317 318 315 314 314 314 313 311 311 306 305 305 304 303 302 301 301 300 298 298 297 298 298 298 300 299 299 298 297 296 294 294
314 314 313 314 314 314 314 312 308 305 305 305 303 303 303 302 300 298 297 297 297 297 297 297 297 298 299 297 296 296 293 292
312 312 313 314 314 313 313 311 306 304 304 303 303 302 302 302 299 298 297 297 297 296 297 296 296 296 296 294 294 293 293 291
312 313 313 314 313 312 311 309 305 304 304 303 302 303 302 300 299 297 297 296 297 296 296 296 296 296 294 294 292 292 291 290
313 313 313 312 312 311 310 308 305 304 303 301 301 301 302 299 298 297 297 296 295 295 296 296 295 295 294 294 293 292 291 290
313 312 313 312 311 311 309 307 306 304 302 300 300 300 301 299 298 297 297 296 295 295 296 296 295 294 293 293 291 290 290 290
312 312 313 311 310 310 308 306 305 304 301 299 300 300 300 299 298 298 297 296 295 295 295 295 294 294 293 289 289 288 287 286
311 313 313 311 311 310 307 305 304 302 300 300 300 299 299 297 297 297 297 296 295 294 293 294 293 294 287 286 286 284 286 285
309 311 312 311 311 309 306 304 303 300 299 299 299 298 296 296 296 296 295 294 294 294 293 292 291 288 287 285 283 282 284 284
310 310 311 311 310 308 306 305 301 299 298 297 297 297 296 296 295 294 294 294 293 293 292 292 291 288 286 285 283 281 283 284

GFSFLT1_sfc_thetae_015.txt.gz
Theta_e
316 320 322 323 323 324 326 323 321 322 322 318 317 313 312 311 309 310 310 310 310 309 309 308 308 306 305 304 303 303 303 300
315 320 322 322 323 326 325 323 321 323 318 315 312 310 308 308 309 309 309 309 309 307 306 305 305 303 303 303 302 299 298 298
314 316 321 322 322 325 324 324 322 324 320 314 313 311 308 308 308 308 309 308 307 307 304 303 303 302 301 300 298 297 297 296
315 316 321 321 321 323 324 323 322 322 318 314 310 309 308 307 306 306 306 302 299 298 299 298 297 298 299 298 298 297 294 295
317 316 318 321 323 325 326 324 318 316 313 310 308 305 304 304 302 299 297 298 298 297 298 297 296 297 295 297 300 297 295 291
315 316 320 322 326 325 324 317 314 312 310 309 307 305 301 298 297 296 295 296 297 298 298 296 297 297 297 297 296 295 294 292
317 319 322 323 324 319 315 312 310 309 308 305 301 299 296 295 294 294 294 295 296 297 297 297 297 297 297 296 295 295 293 292
317 318 318 320 315 311 310 309 308 306 301 299 298 296 295 294 294 293 293 293 294 293 295 295 296 298 297 296 295 294 293 292
317 319 320 315 311 310 307 308 306 303 300 299 297 297 296 295 295 294 294 293 293 293 294 295 296 298 296 296 294 294 294 292
319 319 316 312 311 307 305 307 305 302 299 298 297 297 297 296 295 295 294 294 295 293 293 294 294 296 296 296 294 293 292 290
312 312 311 311 309 308 306 305 302 300 299 298 297 297 297 296 295 294 295 295 293 293 293 293 293 293 293 295 293 292 291 292
308 309 310 310 309 308 306 304 300 298 299 298 297 297 298 297 295 295 295 293 295 293 293 293 293 292 292 290 290 290 290 289
307 307 308 308 308 308 307 302 300 299 299 298 297 298 298 297 297 295 295 293 293 293 293 293 294 293 292 292 291 290 289 289
307 306 307 308 308 307 306 302 300 300 299 298 298 299 299 298 297 295 294 293 292 294 293 293 293 293 292 292 291 290 289 289
306 306 306 308 308 307 307 302 301 300 299 298 298 300 299 298 296 295 294 294 293 293 293 294 294 293 292 291 290 288 288 287
306 305 305 308 308 307 306 304 301 300 298 297 298 299 299 297 296 295 294 295 293 293 293 293 293 293 292 289 287 286 285 285
303 307 307 307 307 306 306 303 301 299 297 297 299 298 297 295 295 295 295 294 294 293 292 292 292 293 289 289 286 283 284 283
304 305 307 306 306 307 303 301 300 297 296 298 297 295 295 294 294 295 294 294 293 292 292 292 290 289 288 287 285 281 282 282
303 303 305 306 305 304 301 300 298 296 296 294 294 294 294 294 294 294 292 292 291 291 291 291 289 288 287 287 284 280 281 282

GFSFLT1_sfc_thetae_021.txt.gz
Theta_e
320 323 324 324 321 319 322 320 317 317 316 312 311 309 308 308 308 307 307 309 308 306 304 303 303 301 300 299 296 296 296 295
322 324 321 322 316 321 320 317 316 318 312 308 307 306 305 305 305 306 306 306 305 303 302 301 300 299 298 298 296 295 294 293
320 319 319 318 317 321 318 318 317 317 313 309 308 306 304 303 304 304 304 304 303 302 298 296 296 295 295 295 295 294 294 292
317 317 317 316 317 321 319 318 319 317 313 308 305 304 304 302 302 301 298 299 297 296 296 295 295 294 293 292 294 294 291 290
317 317 316 316 317 321 322 319 319 317 312 308 307 306 303 302 301 295 294 296 296 296 296 295 295 295 294 295 296 293 291 289
313 316 317 317 318 321 322 319 319 319 313 311 307 305 304 299 295 293 293 295 295 295 296 295 296 297 296 295 293 292 292 290
310 317 317 317 319 320 320 318 318 317 314 312 308 306 301 295 292 292 292 293 293 295 295 295 296 296 297 296 293 292 291 290
308 314 315 316 317 318 319 317 318 317 312 311 308 305 302 297 293 292 292 292 291 292 292 294 298 299 297 296 293 293 291 290
311 314 315 316 318 318 319 312 311 307 309 306 303 301 299 297 295 294 292 292 291 292 294 296 298 298 294 294 294 291 292 290
311 314 316 317 318 316 315 311 308 304 304 302 300 299 298 296 295 295 292 292 293 293 295 295 295 295 294 293 293 291 291 290
312 315 316 318 318 314 309 308 306 304 301 301 301 301 298 296 295 294 294 294 295 295 294 294 294 293 293 293 291 290 289 288
313 315 316 316 313 308 307 303 301 300 301 301 301 297 296 295 294 295 295 295 295 295 294 293 293 293 292 290 290 288 288 287
313 314 311 308 306 305 306 304 302 301 301 299 297 298 296 294 295 296 296 294 295 294 294 293 294 293 292 291 289 289 288 287
310 309 308 308 307 305 306 304 303 301 302 300 297 295 295 295 297 296 294 294 293 293 292 293 293 293 292 290 289 289 287 287
305 306 307 307 307 305 305 304 303 301 300 299 298 296 296 296 295 295 294 294 292 292 293 293 293 291 291 291 289 288 287 287
303 303 304 305 306 306 305 302 300 301 299 298 297 298 297 297 295 294 293 293 292 292 292 293 292 291 291 289 288 286 285 285
301 302 303 303 304 304 303 301 300 300 298 297 298 297 298 296 294 293 293 293 293 292 293 292 291 292 291 291 288 286 285 283
298 300 303 302 302 303 302 300 300 298 297 297 298 298 295 293 293 293 293 293 294 294 292 291 290 290 290 291 290 284 283 282
295 294 296 299 302 301 301 298 296 294 295 294 295 294 292 292 293 292 292 292 291 290 290 289 288 288 289 290 288 282 282 282

GFSFLT1_sfc_thetae_027.txt.gz
Theta_e
321 322 323 324 326 327 327 327 328 330 327 325 326 326 325 325 325 322 319 317 315 316 314 313 312 311 310 309 308 308 308 306
321 323 324 324 326 326 326 326 328 327 323 322 323 324 322 322 322 321 319 316 314 315 312 311 311 310 309 308 307 305 304 305
321 321 323 324 326 327 327 327 327 326 326 324 324 322 318 319 316 317 317 314 313 312 311 310 309 308 308 307 307 304 303 303
320 321 322 324 325 326 327 327 326 326 325 318 314 315 313 312 312 312 312 312 311 309 309 308 306 305 303 305 306 305 300 300
322 321 322 323 325 327 327 326 325 324 321 319 317 319 315 314 312 311 309 308 306 304 304 305 304 304 304 305 305 304 303 299
320 322 323 324 325 326 327 326 325 324 320 320 319 317 318 313 308 303 303 304 304 303 304 305 304 305 305 304 302 303 303 299
319 323 324 325 325 326 327 325 324 324 320 318 318 315 312 309 306 304 302 302 302 303 303 304 305 305 302 301 302 301 299 301
316 318 321 323 322 324 325 325 323 322 320 318 316 314 311 310 306 302 301 301 301 302 304 304 304 304 304 303 301 301 301 300
315 317 320 322 322 323 324 324 324 322 320 319 315 313 312 312 309 305 301 302 302 302 303 303 303 302 304 303 301 302 302 300
313 315 318 321 321 322 323 323 323 322 322 322 318 316 314 312 309 306 305 302 301 301 302 302 300 303 301 303 302 301 301 301
310 313 315 319 321 322 323 324 324 324 323 323 320 316 313 312 308 304 304 302 300 300 301 298 301 301 301 300 300 301 300 300
311 313 315 318 320 321 322 323 323 323 322 319 317 314 313 310 307 305 302 299 298 298 296 299 298 297 299 299 299 299 298 298
314 315 315 317 318 320 321 322 322 318 314 316 315 313 311 308 306 302 300 298 299 297 298 297 298 297 298 297 297 296 296 295
312 315 316 316 317 316 317 317 316 313 313 311 310 309 307 307 305 302 300 298 297 298 298 297 297 297 297 297 296 296 295 295
310 313 314 314 314 315 315 314 311 309 309 309 308 307 306 305 304 301 298 298 296 297 298 298 297 296 296 295 296 296 295 295
308 310 312 313 313 313 312 312 309 308 307 307 307 306 305 303 299 297 296 296 295 295 295 296 296 295 296 296 295 295 295 295
302 304 305 305 307 310 310 309 308 306 305 305 305 304 301 299 297 296 295 295 294 296 294 296 298 297 292 291 292 295 294 293
297 298 300 303 304 306 307 306 304 304 303 303 302 300 298 296 296 295 293 294 295 296 297 297 296 297 291 291 290 293 293 293
295 296 297 298 299 300 301 302 301 300 299 298 298 298 297 295 295 294 295 296 296 296 295 296 296 293 290 290 289 292 293 293

GFSFLT1_sfc_thetae_030.txt.gz
Theta_e
324 326 328 326 326 328 328 329 332 334 334 330 327 331 334 336 335 333 330 327 325 325 323 322 320 318 317 317 314 313 313 312
323 326 328 328 329 328 328 328 331 333 331 326 325 328 332 333 334 332 329 327 324 324 322 320 319 317 317 315 312 309 309 311
322 324 325 325 327 329 329 330 331 332 330 327 327 329 331 333 332 331 329 326 324 323 321 319 318 316 315 313 310 308 309 309
322 323 324 326 326 327 328 330 331 332 331 328 330 331 329 328 326 327 327 325 323 321 320 318 317 315 311 311 310 307 306 307
323 325 326 326 328 329 330 330 331 332 333 329 327 326 325 327 326 327 325 323 321 319 318 317 315 311 309 309 308 309 308 305
323 325 327 329 330 329 332 332 331 332 332 330 328 328 329 330 325 324 321 319 317 316 315 313 311 309 309 308 309 308 309 307
324 326 328 329 331 331 332 332 331 331 332 331 330 329 329 325 321 317 315 310 311 311 311 311 310 309 308 309 307 307 308 306
323 324 326 328 329 331 331 331 330 331 331 331 331 330 328 323 319 315 312 311 307 310 310 308 305 306 308 307 305 304 305 306
322 324 326 327 330 331 331 330 330 331 331 330 329 328 326 322 319 315 311 309 306 308 304 306 306 306 306 304 305 304 307 305
318 322 325 327 329 331 332 330 329 331 331 330 330 328 325 322 318 315 313 310 308 306 304 304 305 305 304 304 304 306 303 305
315 318 321 324 328 330 332 332 329 330 331 331 330 329 325 320 318 313 309 309 310 307 304 303 302 302 303 304 305 303 304 303
317 317 319 321 325 328 328 329 328 329 331 331 330 328 322 318 316 315 314 314 310 305 301 300 300 303 304 303 302 302 300 301
318 319 320 321 323 325 326 327 328 329 330 330 329 325 321 320 319 317 314 313 304 300 300 300 300 303 302 299 300 298 298 298
317 320 321 322 323 324 324 326 326 327 326 324 324 323 320 317 314 312 308 303 300 301 299 298 299 298 299 299 298 297 298 299
316 319 321 322 323 323 324 324 325 323 322 322 321 319 319 318 315 311 309 307 302 300 299 299 298 299 299 297 298 299 301 300
315 318 320 321 321 321 321 321 319 319 317 317 317 317 316 314 313 312 310 306 302 298 297 297 299 298 300 299 299 298 299 298
311 312 312 312 314 316 316 316 315 315 314 313 312 312 310 309 306 303 300 298 297 296 297 296 299 299 293 292 293 297 298 297
306 308 309 310 311 313 312 312 312 311 310 309 308 307 306 305 303 300 297 295 296 295 297 298 297 298 293 292 290 294 296 298
305 306 306 307 309 309 309 309 308 307 306 305 305 305 303 301 300 298 295 297 297 298 298 298 297 298 292 290 290 293 297 296

GFSFLT1_sfc_thetae_036.txt.gz
Theta_e
319 319 320 318 316 314 314 315 318 319 318 315 320 321 324 324 325 330 330 330 330 328 328 325 322 320 318 315 313 310 309 308
320 320 321 318 318 317 318 319 320 321 321 320 323 318 321 322 329 331 331 331 329 327 326 323 321 319 317 317 312 308 305 305
318 319 321 320 319 320 322 323 324 323 324 325 325 321 321 323 330 331 330 329 327 327 325 322 321 319 317 315 311 307 307 307
318 319 320 322 321 322 323 325 325 326 326 327 326 323 322 321 328 329 329 330 329 325 325 323 321 320 316 314 311 308 304 305
318 319 321 321 323 324 324 324 324 325 326 323 323 318 316 321 327 329 329 330 328 326 325 324 322 319 316 313 312 308 306 303
316 318 321 324 325 325 325 326 325 327 327 327 324 320 320 322 326 327 327 328 328 326 325 322 320 317 314 313 310 308 307 305
319 320 321 323 325 326 327 326 326 327 327 327 326 322 322 323 324 325 325 325 327 325 322 320 313 311 309 308 309 307 307 306
317 319 319 321 322 324 326 326 325 327 328 328 327 327 325 324 325 326 324 323 320 317 313 311 311 310 309 308 307 306 305 303
318 318 321 322 322 324 325 325 325 326 327 328 329 327 327 327 326 325 324 321 317 313 312 311 310 308 306 306 305 304 304 303
318 320 320 323 325 326 326 326 326 326 327 327 327 330 327 325 326 326 323 318 313 312 311 310 308 306 305 304 303 303 303 303
318 320 321 322 324 327 329 329 327 328 328 329 329 327 327 327 326 326 320 315 313 312 311 310 306 304 304 304 302 303 303 302
317 318 319 323 324 324 328 329 329 329 329 329 329 325 323 322 327 324 317 315 314 312 310 307 305 304 304 302 302 302 302 301
318 319 320 320 322 325 328 329 330 331 330 328 328 328 329 325 322 320 318 316 314 311 309 307 305 303 303 301 301 302 300 299
317 319 320 320 321 323 325 329 330 331 331 328 327 325 322 321 319 317 316 314 312 310 307 305 302 301 300 300 301 300 299 299
314 318 320 322 323 324 326 327 328 328 327 324 324 322 321 319 317 314 307 304 302 301 302 302 301 301 300 300 301 299 298 299
313 318 320 322 323 324 325 326 326 326 324 323 320 320 320 318 315 312 308 305 302 301 300 300 299 299 300 298 299 298 297 296
314 317 321 322 323 323 323 322 322 322 320 318 319 319 317 315 312 310 308 305 304 300 299 297 297 298 293 296 297 297 296 296
316 319 320 321 321 320 317 317 317 315 314 314 313 312 309 308 306 304 302 301 300 297 297 297 297 296 294 293 292 294 293 292
315 315 315 316 316 314 314 314 312 311 310 310 309 308 306 304 302 299 298 297 296 296 296 297 296 297 293 292 290 291 292 293

GFSFLT1_sfc_thetae_039.txt.gz
Theta_e
314 313 313 312 311 312 313 315 315 314 315 315 316 313 316 318 320 325 326 327 326 324 323 322 318 316 315 312 310 308 305 304
314 313 314 312 310 311 313 312 311 313 310 311 311 311 316 318 320 327 327 326 327 323 321 319 318 316 314 311 310 304 302 302
314 314 312 311 309 310 310 311 311 314 313 312 312 317 315 318 318 325 327 327 326 324 321 317 316 315 314 311 307 303 302 301
313 314 312 311 310 310 310 311 317 315 316 315 318 318 314 315 317 322 326 323 320 324 321 318 316 316 313 310 306 305 301 302
314 315 313 312 313 315 316 317 320 319 319 319 319 319 316 315 316 323 323 324 323 324 322 320 318 316 314 311 310 307 305 301
314 314 316 316 315 316 318 320 321 320 320 321 320 318 317 316 319 323 324 324 325 324 321 319 317 316 314 313 310 307 308 306
315 316 317 318 318 318 319 320 321 321 322 322 321 319 314 313 314 322 323 324 324 323 322 321 318 310 309 309 309 308 307 307
314 315 317 317 318 318 319 319 318 320 321 322 322 320 316 316 317 319 321 320 318 321 318 314 310 310 310 310 307 304 305 304
313 315 316 318 319 320 320 320 320 321 321 322 322 322 320 319 319 319 320 322 322 316 312 311 309 311 308 306 305 304 304 304
312 315 316 317 319 320 321 322 322 322 322 322 323 323 322 321 322 323 323 323 316 313 311 309 307 305 305 303 303 304 303 303
313 314 316 317 318 320 321 322 322 323 323 323 324 324 323 323 322 318 319 315 315 312 312 311 309 305 303 304 303 303 303 303
309 312 313 317 319 319 320 321 322 324 323 323 323 324 325 325 323 321 318 314 313 312 313 310 304 303 304 303 302 303 302 301
309 310 311 312 315 320 320 322 323 319 320 324 324 322 322 319 320 317 315 312 313 313 311 308 306 304 303 302 301 301 300 300
310 311 312 312 313 316 321 324 324 322 321 323 323 323 324 320 318 317 314 313 313 310 308 306 304 303 302 301 301 301 300 300
310 311 312 313 315 317 320 321 323 324 324 322 319 318 317 316 315 313 310 309 308 308 306 304 303 301 301 300 300 299 298 299
309 311 312 315 317 318 319 319 320 323 321 319 316 316 316 313 311 308 305 305 303 302 301 301 301 300 300 300 300 299 297 297
307 314 315 317 317 317 317 317 317 318 316 316 317 316 315 313 310 307 304 302 301 300 299 299 298 299 294 295 297 297 296 295
309 315 316 317 317 316 314 313 312 312 312 311 309 308 306 304 305 305 303 300 296 294 294 293 293 293 293 293 293 294 292 290
313 313 312 313 313 312 310 310 309 308 307 306 306 304 302 299 297 295 294 294 293 293 293 294 293 293 292 292 290 290 289 291

GFSFLT1_sfc_thetae_042.txt.gz
Theta_e
312 313 312 313 313 314 314 315 315 316 317 317 317 314 311 313 311 314 319 321 322 322 319 320 317 314 311 310 308 307 305 303
312 311 311 312 311 311 312 313 314 314 314 315 313 311 309 311 312 316 321 321 324 321 319 319 316 315 314 311 308 305 302 302
311 310 309 309 309 311 311 312 312 313 314 314 312 312 310 312 314 317 323 324 324 322 320 319 316 314 312 310 307 302 301 300
310 310 309 308 308 309 311 312 311 312 313 311 308 310 312 312 314 316 320 324 324 324 320 318 316 315 313 310 306 304 301 300
311 310 309 308 308 310 311 312 311 312 312 310 309 310 309 313 316 317 319 323 323 322 321 319 316 315 312 311 307 304 304 302
311 311 310 310 309 308 309 311 311 312 313 311 310 309 312 316 312 314 318 320 322 320 320 319 316 315 314 312 306 305 307 306
313 314 313 310 310 309 309 309 310 315 313 314 313 313 315 317 313 314 317 320 321 321 321 320 318 317 315 312 309 306 306 305
312 313 312 311 310 310 311 312 312 316 317 315 315 317 318 317 315 315 316 318 317 319 322 320 318 315 314 312 309 308 305 305
312 313 314 314 312 312 313 314 315 316 317 317 317 318 319 319 318 315 320 321 321 322 322 320 318 312 310 311 308 307 305 305
312 314 314 315 316 314 314 315 317 318 318 318 318 319 320 320 318 317 319 322 322 320 318 316 313 312 310 308 307 305 305 305
311 313 315 316 317 318 318 317 317 318 319 320 320 320 321 322 319 319 319 315 316 315 313 312 309 309 307 307 306 304 304 304
310 312 315 317 318 318 318 318 319 319 320 321 320 321 321 321 319 319 317 317 316 314 311 309 308 307 306 305 304 304 303 302
309 310 312 314 315 317 319 319 320 321 322 322 321 320 319 320 320 319 318 318 318 315 312 312 308 306 305 303 302 303 302 301
307 307 309 312 313 315 316 319 320 321 321 322 322 322 321 322 322 320 321 320 318 313 312 310 307 306 304 302 302 301 301 300
307 307 309 310 312 315 316 317 320 320 319 319 320 320 322 323 323 319 317 314 312 311 309 307 305 303 302 302 301 300 300 299
307 308 309 311 314 316 318 318 320 321 319 319 318 320 322 319 315 313 311 311 309 308 306 304 302 301 301 300 300 299 298 298
307 309 310 314 316 315 316 317 317 320 321 321 318 317 316 313 310 307 305 305 304 302 301 300 299 300 294 295 298 298 297 296
303 310 312 315 316 315 314 314 315 315 316 316 315 313 311 309 307 305 303 300 299 298 298 298 297 298 293 294 294 296 294 293
307 311 312 314 312 311 311 312 311 309 309 308 308 307 306 305 302 299 295 296 295 292 292 293 293 293 292 292 290 290 289 290

GFSFLT1_sfc_thetae_045.txt.gz
Theta_e
311 314 314 315 315 315 315 316 316 317 317 317 317 315 312 312 313 318 319 319 321 319 318 318 317 315 312 310 307 305 303 301
311 313 313 313 313 314 314 315 315 316 315 315 314 312 312 312 313 316 316 318 320 318 317 317 315 314 312 311 306 305 302 301
309 309 310 309 311 312 313 314 315 315 316 315 315 311 311 311 312 312 317 319 319 319 318 317 315 312 310 309 307 302 301 300
309 309 308 307 307 309 311 313 314 315 315 311 309 311 311 309 309 310 313 318 320 320 318 318 315 313 311 309 306 304 300 299
310 309 308 306 307 309 311 312 313 313 311 309 309 309 308 309 308 310 312 317 320 322 320 318 316 314 311 311 308 304 303 299
310 309 310 308 308 308 310 311 311 312 311 310 308 307 309 309 310 311 312 315 319 320 320 318 317 315 313 312 309 309 305 304
313 312 311 309 308 308 309 310 311 311 311 310 309 308 307 309 311 312 313 313 316 318 318 318 317 315 313 314 313 309 307 306
311 310 310 309 307 307 308 309 309 311 311 311 310 309 308 309 312 313 313 313 313 317 317 316 316 317 316 314 312 310 308 306
311 312 311 310 309 307 308 308 308 310 311 311 312 312 311 311 312 314 314 314 316 316 318 319 320 318 314 313 313 311 309 307
311 312 313 312 310 309 307 308 308 309 309 313 312 313 312 313 314 315 315 316 318 317 317 319 320 318 316 313 312 309 308 307
311 312 313 314 313 311 311 309 309 310 310 312 314 314 315 315 316 316 315 315 316 315 315 315 315 314 313 312 310 308 307 306
310 312 314 315 315 313 311 311 311 311 313 314 315 316 316 317 318 319 316 315 316 316 316 314 312 312 308 308 306 304 305 304
310 310 313 314 314 315 314 313 313 314 316 317 317 318 319 319 319 319 318 318 318 316 315 312 310 308 307 307 304 304 304 303
305 307 309 312 314 315 316 317 316 317 317 317 318 319 319 319 320 320 319 320 319 319 319 314 311 310 306 305 305 303 303 302
303 305 308 311 313 314 315 317 318 318 318 318 318 319 320 320 320 320 320 320 319 318 314 312 310 307 306 304 303 302 301 301
303 304 305 307 309 312 313 315 317 318 318 318 319 320 321 320 320 320 320 319 318 313 311 308 306 304 303 302 301 300 299 298
303 305 306 308 311 313 314 313 313 317 317 318 319 316 317 317 316 313 311 309 308 309 306 303 302 303 298 295 298 299 298 297
301 304 308 310 314 315 314 313 315 316 316 316 316 315 315 312 310 308 306 304 302 301 301 301 300 298 294 294 294 297 296 295
301 302 307 311 312 311 311 313 314 316 316 315 314 312 308 306 305 303 300 300 299 298 297 298 298 297 292 292 291 293 292 292

GFSFLT1_sfc_thetae_048.txt.gz
Theta_e
312 312 314 316 315 316 318 319 319 318 319 318 316 315 312 317 318 320 320 319 319 317 316 314 314 312 312 311 307 306 305 302
313 313 314 314 314 315 316 316 318 318 317 315 315 315 312 311 313 317 320 320 320 319 318 317 316 313 312 310 306 305 302 301
311 311 312 312 313 314 314 315 316 317 318 318 315 316 312 311 312 315 318 319 320 320 316 316 314 312 310 308 307 303 303 301
309 310 309 311 311 313 313 315 315 317 318 316 311 312 311 310 310 312 314 317 318 318 317 316 315 313 310 308 306 304 301 300
309 309 309 309 310 312 313 314 315 315 316 314 313 313 313 313 310 310 312 315 315 317 318 316 315 313 311 310 308 304 302 300
309 308 309 309 309 309 309 312 314 315 313 313 311 310 312 310 307 308 309 311 314 316 317 316 314 314 313 311 308 305 304 303
310 311 310 307 307 307 308 309 310 312 311 310 310 310 309 308 307 308 309 310 311 314 316 316 315 314 313 312 310 308 309 308
309 308 308 307 305 306 307 309 309 311 310 310 309 310 309 309 309 309 309 309 310 311 313 313 313 314 314 312 311 311 310 309
310 309 309 308 307 307 307 308 309 310 310 310 310 309 309 309 308 309 309 310 310 311 313 314 314 314 313 312 311 313 311 310
309 311 310 309 308 307 307 308 308 309 310 310 310 310 309 309 309 308 310 311 313 313 314 313 313 314 314 313 313 312 312 311
309 310 311 311 310 309 308 309 308 309 310 310 310 310 310 310 309 310 312 313 313 314 314 315 316 317 316 316 316 316 314 312
308 310 312 313 312 310 308 308 309 308 309 310 310 311 311 311 312 314 315 315 315 314 315 316 316 316 316 315 314 309 309 310
307 310 311 311 313 312 310 309 308 309 309 309 311 312 314 313 313 315 315 314 316 316 316 316 317 316 312 310 308 308 308 306
305 306 310 311 312 313 312 311 310 310 310 310 311 312 313 314 314 315 315 315 317 317 317 317 315 310 308 308 307 306 305 305
301 304 307 310 312 313 314 313 313 312 311 312 311 312 313 314 315 315 316 317 317 318 318 318 317 310 307 306 306 304 303 302
301 301 304 307 309 311 313 314 315 315 313 312 313 314 315 315 316 316 318 318 318 319 318 315 310 309 306 305 304 303 301 300
300 303 303 304 307 309 312 313 314 315 315 314 315 315 316 316 316 317 318 318 318 318 314 309 307 306 298 298 301 301 300 298
300 301 305 305 306 308 309 311 310 314 315 315 315 316 315 316 318 318 317 315 311 309 306 305 304 303 295 296 297 299 297 296
300 300 301 305 307 309 309 311 311 311 312 312 313 314 315 315 312 310 305 305 306 302 301 301 299 297 294 293 292 295 293 293

GFSFLT1_sfc_thetae_051.txt.gz
Theta_e
315 317 316 318 320 320 321 320 321 321 321 321 321 321 319 321 323 323 322 322 322 321 319 319 318 319 318 317 315 314 312 311
315 316 318 317 319 318 319 319 319 319 318 318 317 316 318 320 324 325 324 323 323 323 321 320 319 317 320 319 317 315 312 311
313 313 316 316 317 318 317 318 318 319 318 319 319 318 316 319 320 323 325 324 323 324 324 322 321 319 320 320 317 315 314 312
312 312 313 315 315 317 317 317 318 319 320 317 315 314 314 314 316 318 321 324 323 324 326 325 323 324 320 321 319 317 314 312
313 313 313 315 316 318 318 319 318 318 319 316 314 315 314 314 315 315 315 320 323 325 326 325 324 324 323 323 320 320 319 314
313 314 314 314 316 316 317 319 319 319 318 318 315 317 317 317 315 313 314 318 320 322 323 325 325 325 325 324 321 319 318 319
315 316 316 314 314 313 315 317 318 319 319 318 317 317 317 316 314 313 315 316 318 320 320 323 325 325 325 324 323 321 319 317
314 313 313 313 310 309 312 314 315 318 318 317 318 318 317 317 317 316 316 316 316 318 320 321 322 324 325 325 323 322 321 319
314 314 314 312 311 310 311 313 315 316 317 316 317 318 317 317 318 317 318 317 318 319 320 321 322 322 323 324 323 323 322 321
314 315 315 314 313 312 313 314 315 316 317 318 318 317 317 316 317 317 318 318 318 319 320 320 321 322 323 323 322 322 321 320
313 315 315 316 315 315 314 315 315 316 316 317 317 317 317 318 317 316 316 318 318 319 320 321 321 322 322 322 322 322 320 317
313 315 316 316 316 315 314 314 314 315 316 317 317 317 317 317 316 316 316 316 316 317 319 320 320 321 322 322 322 321 315 316
312 315 316 316 315 315 314 314 314 315 316 316 316 317 316 316 315 317 318 317 315 316 317 319 320 320 322 320 319 315 314 313
309 312 314 315 316 316 315 314 314 316 315 315 316 316 316 314 315 317 318 318 318 319 318 318 319 318 320 319 318 313 311 313
305 309 313 315 316 317 316 315 316 315 314 314 314 315 315 316 317 317 318 318 318 319 320 320 320 319 319 316 315 316 314 312
304 306 310 313 315 317 318 318 317 316 314 314 314 315 316 317 318 319 319 319 319 320 320 321 321 320 316 314 312 310 309 306
306 305 307 309 312 315 317 318 318 317 316 314 315 316 316 316 317 318 319 319 319 320 320 320 319 317 304 301 306 309 307 302
306 306 306 308 310 313 315 317 319 318 317 317 317 317 317 318 318 317 318 319 320 320 320 318 315 313 298 298 296 303 302 300
307 307 308 309 311 312 314 316 317 317 317 318 318 318 317 318 318 318 319 319 317 315 311 308 305 302 295 294 294 298 296 296

GFSFLT1_sfc_thetae_054.txt.gz
Theta_e
321 320 322 322 322 322 322 322 322 323 322 323 322 321 321 323 323 325 325 323 323 323 321 323 325 323 322 321 319 319 318 317
321 322 319 321 322 321 320 319 320 321 319 320 320 318 318 320 321 325 327 323 324 324 322 323 324 324 324 324 321 318 316 318
320 321 321 319 322 321 321 320 321 320 320 320 320 319 318 319 320 323 326 327 324 324 324 323 323 324 325 325 323 319 319 318
319 320 321 322 322 320 320 320 320 320 320 321 320 319 318 317 318 322 325 328 325 325 325 325 324 324 323 325 325 323 320 320
320 320 321 321 323 324 322 321 320 320 320 319 317 314 314 317 318 322 324 327 326 325 325 326 327 325 324 325 325 325 324 320
320 321 322 323 323 323 322 321 321 320 320 319 317 316 316 317 317 319 323 326 326 325 326 328 328 329 328 328 327 327 326 326
322 323 323 323 323 323 321 320 320 320 319 319 317 317 317 318 316 315 316 319 324 327 326 329 330 329 329 330 330 329 327 326
321 321 322 322 322 322 322 320 318 321 320 320 321 320 321 321 318 317 317 316 317 319 324 325 325 326 328 329 329 329 328 326
320 322 323 322 322 322 320 321 321 321 321 321 324 323 324 322 322 321 320 320 321 321 323 324 324 324 325 326 325 326 327 327
319 321 323 324 323 322 319 320 321 322 323 324 324 325 325 324 324 325 323 324 323 325 324 323 323 323 324 325 325 324 326 328
317 320 322 324 324 323 321 321 321 322 323 324 324 325 326 326 326 325 325 326 326 325 324 324 324 325 325 324 325 325 325 327
317 320 322 324 324 324 322 321 321 321 323 324 324 325 325 326 326 326 325 326 325 324 325 324 324 325 325 325 325 325 325 325
316 320 322 322 323 323 323 323 322 322 322 323 324 324 324 324 325 325 327 326 325 325 325 324 323 324 325 324 323 323 323 323
313 317 320 322 322 322 323 323 323 323 323 322 323 323 324 324 324 324 323 323 323 323 322 322 320 322 321 322 320 323 323 322
313 313 318 321 322 323 323 323 324 324 323 322 322 323 324 324 324 323 324 323 321 322 322 322 322 321 321 321 321 322 322 322
312 313 314 317 321 323 323 324 324 324 322 321 322 324 323 322 322 322 322 322 322 321 322 322 322 322 322 322 322 322 321 319
311 313 313 313 316 320 322 323 323 323 321 321 322 322 322 322 321 322 321 322 321 322 321 321 322 322 307 303 312 320 318 315
310 311 313 314 315 317 319 322 325 323 322 321 321 321 321 321 321 321 320 321 322 321 321 321 321 323 299 300 300 318 312 309
312 313 313 314 316 316 318 320 322 323 321 321 321 321 320 321 320 320 320 321 322 322 321 321 320 320 299 299 296 305 301 300

GFSFLT1_sfc_thetae_057.txt.gz
Theta_e
323 323 324 327 326 324 325 324 322 323 322 322 322 322 323 324 324 325 324 322 323 325 324 328 324 322 321 321 323 322 321 319
323 324 324 326 325 324 323 322 322 322 320 319 319 318 320 321 323 323 324 323 323 324 322 326 325 323 323 325 321 320 318 320
322 324 323 325 323 324 322 321 321 322 322 322 321 319 319 320 321 325 326 327 323 323 324 322 324 324 327 326 325 319 317 318
322 322 323 323 324 323 321 320 321 322 322 324 322 322 319 317 317 319 323 327 323 323 325 325 325 327 327 328 326 324 318 320
322 322 324 323 324 325 323 321 321 323 322 320 319 317 315 316 316 317 321 326 325 322 325 328 329 326 328 329 327 327 326 320
322 323 324 325 326 325 325 321 321 321 322 320 319 319 319 317 316 316 322 325 323 324 327 329 329 328 329 329 329 329 327 325
323 325 325 325 326 326 324 323 320 320 322 321 320 318 317 316 315 315 321 323 326 325 326 328 329 330 330 329 330 330 329 328
322 323 323 325 325 325 324 321 321 320 320 319 321 322 318 319 319 317 315 319 321 325 327 326 328 329 330 326 328 330 330 328
321 323 324 324 325 325 324 322 321 321 320 320 322 323 321 322 321 321 321 318 321 324 328 329 329 330 330 329 329 328 326 327
320 322 325 326 326 325 325 323 323 323 321 321 320 321 321 322 324 325 323 323 323 325 327 328 329 329 329 329 328 328 328 329
318 321 324 326 327 327 326 325 323 323 324 323 322 322 322 325 325 326 326 325 325 325 325 326 326 327 327 327 326 327 326 326
316 319 322 325 327 327 326 325 323 323 325 326 325 326 325 325 326 328 328 328 326 325 325 325 324 325 326 325 325 325 324 325
315 318 322 324 325 327 326 325 324 323 325 327 328 329 329 327 327 329 330 329 329 327 325 325 325 324 325 325 324 323 323 323
315 316 320 323 324 325 326 326 325 325 324 326 328 329 328 328 329 329 330 329 329 327 327 325 324 325 324 325 324 324 324 324
313 314 316 321 324 325 326 326 328 326 325 325 325 327 328 328 329 329 329 329 328 328 327 326 326 325 325 324 324 324 324 323
312 313 315 316 320 324 325 326 328 328 326 325 325 327 328 328 328 328 328 328 327 327 326 326 326 325 324 324 323 322 320 319
311 313 314 314 316 318 323 325 327 328 327 327 327 327 326 327 327 327 327 327 327 327 325 325 325 324 309 302 313 323 320 317
311 313 314 315 316 318 318 322 326 326 327 327 327 328 326 327 327 326 325 326 326 325 325 325 324 325 302 300 299 321 323 322
312 313 314 315 316 317 319 318 321 324 325 325 326 326 326 326 326 325 325 325 325 325 325 325 324 323 300 299 298 318 319 314

GFSFLT1_sfc_thetae_060.txt.gz
Theta_e
322 322 324 326 325 324 324 324 324 323 323 323 323 323 322 321 321 322 325 324 323 323 322 323 322 321 320 319 318 319 316 315
323 323 324 325 324 324 322 322 322 321 320 319 319 318 320 320 322 323 323 321 321 321 320 321 321 318 317 319 319 317 316 316
321 322 322 324 323 322 323 322 322 321 320 320 320 319 320 320 321 321 320 320 320 321 320 320 320 320 320 319 317 315 316 316
320 321 321 323 323 322 321 321 321 321 321 321 320 319 319 317 317 319 320 320 320 320 321 320 320 321 320 319 319 317 312 313
321 321 322 321 323 323 321 321 321 321 322 320 317 316 314 315 317 319 320 323 320 320 321 321 320 320 322 322 323 320 319 312
320 321 323 323 323 323 321 320 320 321 322 321 319 317 316 315 316 316 318 322 324 321 321 322 320 320 320 323 322 321 320 318
321 323 324 324 323 323 321 320 320 321 321 321 320 317 316 314 315 313 315 317 323 323 321 321 323 323 321 322 323 322 321 320
320 321 322 323 323 323 322 319 319 321 320 320 320 320 318 316 315 314 313 314 318 320 321 321 323 323 324 324 322 322 323 321
318 321 323 323 323 324 322 320 318 319 320 320 320 320 319 318 316 316 315 315 318 321 321 321 322 323 324 324 323 323 322 321
318 321 323 323 324 323 323 321 321 319 318 321 320 321 319 318 318 318 317 317 318 321 323 322 322 322 323 324 323 321 321 321
317 319 324 324 325 325 325 322 321 322 320 320 320 320 321 320 320 319 319 318 318 319 321 323 322 322 323 324 323 322 321 321
315 319 321 325 326 326 325 324 322 321 321 321 319 319 320 321 320 321 320 320 319 319 319 320 321 322 323 322 321 321 320 320
315 317 321 322 325 325 325 324 323 322 323 322 320 320 320 320 320 321 322 321 322 320 319 320 320 320 321 320 320 320 319 318
313 314 319 321 323 324 325 325 324 324 323 323 322 321 321 321 320 322 322 322 323 322 321 319 319 320 319 320 320 319 318 318
312 313 314 315 322 324 325 326 326 325 324 323 323 323 322 322 323 323 323 324 322 323 323 321 320 320 320 320 319 319 318 318
310 311 313 314 315 316 322 325 327 326 324 323 322 324 325 325 324 324 324 324 325 324 323 322 322 321 320 319 319 318 318 318
310 311 313 313 314 314 316 318 325 328 325 324 324 323 324 324 324 324 325 324 324 325 324 323 322 322 310 303 312 319 318 317
309 310 311 312 313 315 314 316 317 322 325 325 325 325 323 323 324 324 323 323 324 323 322 322 321 322 304 302 300 317 318 317
308 309 309 312 314 314 315 316 318 316 319 324 326 325 325 324 323 323 322 323 322 322 321 321 321 320 303 301 299 312 316 315

GFSFLT1_sfc_thetae_063.txt.gz
Theta_e
316 319 322 321 321 321 322 323 323 323 324 324 325 325 324 323 322 322 324 324 323 325 325 324 324 322 319 317 317 314 314 315
316 318 322 320 319 321 321 321 322 321 320 320 320 319 320 320 321 321 323 322 322 319 322 321 320 320 319 317 316 314 312 313
315 319 320 319 318 319 321 320 320 320 320 320 320 320 320 320 320 321 322 320 320 318 319 319 318 319 318 316 314 313 313 313
314 316 317 318 317 318 320 320 320 320 320 320 320 320 319 318 319 319 320 319 319 319 319 318 317 318 317 314 313 313 311 312
316 315 315 317 317 319 321 320 319 320 320 318 317 316 314 316 317 318 317 318 318 318 319 318 317 318 317 315 316 316 312 310
315 316 316 318 319 318 318 319 320 319 319 319 317 315 316 317 317 316 317 317 317 317 318 318 316 316 317 317 317 317 317 313
316 318 317 317 318 317 317 318 319 320 319 318 316 316 313 313 312 314 315 318 318 317 318 319 317 316 316 320 319 318 317 317
315 316 316 316 317 316 316 317 318 319 319 318 316 316 315 312 313 315 315 314 318 319 318 316 317 318 317 318 320 320 318 318
316 317 317 317 317 317 316 316 318 319 319 318 318 317 316 314 314 315 315 315 316 320 320 318 318 319 320 320 320 320 320 320
316 317 318 318 318 317 317 316 317 319 319 318 318 319 318 315 314 314 315 315 316 317 320 319 318 319 320 321 320 319 319 319
316 318 318 319 319 319 318 317 316 317 319 319 319 319 320 319 316 314 314 314 315 315 319 319 319 319 320 321 321 321 319 318
310 317 319 320 320 320 318 318 317 316 317 318 319 319 319 319 317 316 315 315 314 314 317 319 320 319 319 320 321 321 319 319
310 310 313 317 319 320 319 318 318 318 317 317 317 319 319 319 319 318 318 316 316 315 315 317 319 319 320 318 318 320 319 318
308 310 310 312 315 319 320 320 319 319 319 317 317 317 317 318 319 320 319 319 317 317 316 315 315 316 318 319 319 319 319 319
308 308 309 310 312 313 318 320 321 320 320 318 317 317 316 317 318 319 319 319 318 318 318 317 317 317 317 317 318 318 319 319
307 307 307 309 310 311 312 313 316 322 320 319 319 318 319 318 317 318 320 319 319 319 319 318 318 317 317 317 317 317 316 316
306 306 307 308 309 308 309 310 311 315 321 320 320 321 320 319 319 319 319 319 319 320 318 319 319 319 308 302 311 316 316 315
304 305 306 305 302 302 301 304 308 311 313 317 321 321 320 321 321 320 320 320 321 320 320 320 319 320 304 301 300 315 316 315
302 303 303 300 298 298 299 301 303 306 305 306 310 314 317 320 321 321 321 321 321 320 320 320 321 321 305 302 299 311 316 317

GFSFLT1_sfc_thetae_066.txt.gz
Theta_e
314 320 321 319 320 320 322 324 324 325 325 326 325 324 322 321 322 324 325 325 326 325 321 321 318 316 314 315 314 314 315 315
317 321 320 318 318 319 320 322 322 323 322 322 322 321 322 321 322 323 324 323 324 325 322 322 321 318 318 316 314 314 313 314
316 318 318 318 318 317 318 321 322 322 322 322 321 322 321 322 321 322 323 322 322 323 324 321 322 320 316 315 314 311 313 314
314 317 316 316 317 317 317 319 320 320 320 320 318 320 319 318 319 319 322 321 320 320 322 319 320 319 317 314 314 313 311 311
314 316 316 315 316 317 317 318 319 319 320 319 318 316 315 317 318 320 321 320 319 319 320 318 318 319 318 316 314 312 312 312
313 316 316 317 317 317 317 318 319 319 319 319 318 316 317 318 318 318 319 319 318 317 318 318 317 318 318 317 315 312 312 312
313 316 317 316 317 317 316 316 317 318 319 319 317 316 316 315 316 315 316 316 316 317 317 317 317 317 318 317 316 313 313 313
313 312 314 315 316 316 316 315 316 318 318 318 317 315 314 314 314 315 315 315 315 315 317 317 317 317 317 318 316 314 313 315
313 313 314 315 316 315 315 315 316 317 318 317 317 316 314 313 314 315 314 316 316 317 317 317 318 317 316 317 318 318 316 316
314 315 314 315 315 315 315 315 316 317 317 318 316 315 314 313 312 314 314 313 317 318 318 316 317 317 318 317 315 316 318 318
314 315 315 316 316 316 316 316 316 317 317 318 318 317 316 315 312 312 314 315 313 315 319 318 317 317 318 317 317 317 317 318
312 314 316 316 317 317 316 315 315 316 317 317 318 318 319 318 316 313 313 314 312 312 315 318 318 317 316 316 317 318 317 317
309 312 315 316 317 316 315 315 315 316 317 317 317 318 319 319 318 317 315 313 313 313 312 316 317 318 317 315 314 316 317 317
307 309 309 310 312 318 318 317 316 316 316 316 316 317 317 317 318 318 317 316 314 313 313 312 314 317 317 317 316 316 316 317
305 307 308 309 309 309 311 315 317 318 317 316 315 315 317 317 317 318 319 319 317 316 315 314 313 313 315 317 317 316 316 316
305 305 304 303 302 303 304 305 308 311 318 317 316 317 317 317 317 317 318 318 318 318 317 317 315 314 313 313 314 314 315 316
303 302 300 298 298 298 300 302 304 307 307 306 316 319 319 317 317 316 316 317 317 318 317 317 317 316 307 302 308 314 314 314
300 298 296 294 294 295 296 298 300 300 300 301 303 305 310 317 319 318 316 316 317 317 317 318 317 317 304 301 299 313 315 314
296 294 292 291 292 292 294 295 295 295 295 296 299 301 304 304 306 310 318 318 317 316 316 317 317 317 304 300 298 311 313 314

GFSFLT1_sfc_thetae_069.txt.gz
Theta_e
315 318 320 319 318 318 322 323 325 325 325 325 323 322 322 322 322 324 326 327 324 320 318 318 317 313 313 313 314 312 312 314
315 319 318 318 317 317 321 321 324 324 323 322 322 320 320 321 320 323 324 326 324 320 319 317 316 310 312 314 311 311 310 313
316 318 318 319 318 318 319 319 322 324 324 323 323 323 322 322 321 321 324 324 326 322 319 318 316 314 314 315 312 310 310 312
315 317 317 318 317 317 318 319 320 322 323 320 320 320 320 320 320 320 323 322 323 325 321 320 319 317 316 315 312 312 310 310
314 315 316 316 317 316 316 320 319 320 321 320 319 318 316 319 320 320 322 321 322 321 323 320 320 320 317 315 314 314 313 311
313 315 316 317 318 317 318 318 317 319 319 319 318 316 317 318 318 318 320 320 319 318 321 319 319 320 319 317 313 311 314 313
313 316 316 316 317 317 316 316 315 317 318 317 315 316 316 316 317 317 318 319 318 317 319 318 319 318 318 317 315 313 313 315
311 313 314 315 316 316 316 316 315 315 318 316 315 313 315 316 316 317 316 317 316 315 317 318 317 317 318 318 316 316 313 312
311 314 314 314 315 316 315 314 315 315 317 318 318 315 316 315 316 317 317 317 317 316 317 318 318 317 317 318 317 316 315 313
310 313 315 314 316 315 315 315 315 316 316 317 317 316 312 312 314 315 316 318 317 315 315 316 318 318 317 316 317 316 316 314
311 312 314 315 315 316 315 316 315 315 316 315 315 316 316 312 311 311 312 312 314 316 316 315 316 317 317 316 315 315 316 316
311 312 313 314 315 315 315 315 316 316 316 317 316 315 314 313 311 311 312 312 312 312 317 317 315 316 316 316 315 315 314 315
311 312 314 314 315 315 315 315 315 317 317 317 316 315 316 315 314 314 312 312 312 312 312 316 318 316 316 315 316 317 316 314
306 306 306 308 314 316 316 316 315 316 316 317 316 315 315 315 316 317 316 314 313 312 313 312 314 316 317 316 315 314 315 315
301 301 301 303 304 306 307 307 309 310 316 316 315 315 315 316 316 316 316 316 315 314 313 312 312 313 315 316 315 314 314 313
297 296 296 297 298 300 302 302 303 304 310 310 313 316 317 318 317 316 317 316 316 316 315 314 314 312 312 312 314 315 314 314
295 294 293 292 293 295 296 297 298 298 299 300 303 305 311 314 317 317 317 317 317 317 315 315 315 315 306 301 305 311 312 313
293 292 291 290 290 292 292 293 294 295 295 296 298 299 301 302 303 305 313 316 317 317 317 317 316 316 303 301 299 311 312 312
290 290 289 289 289 291 291 290 290 292 292 293 293 293 294 295 297 299 299 302 303 309 315 317 317 317 304 301 301 311 313 313

GFSFLT1_sfc_thetae_072.txt.gz
Theta_e
315 316 319 319 317 319 323 324 323 324 325 324 324 322 323 323 326 326 325 328 326 324 321 319 319 317 315 313 311 311 315 314
314 317 318 316 315 317 321 323 324 325 323 321 320 320 320 321 323 326 326 325 322 320 318 317 316 315 314 313 312 312 311 314
314 316 317 317 317 318 319 321 324 324 324 322 323 321 321 321 322 324 326 324 321 319 318 316 315 312 313 313 313 310 311 314
312 315 317 318 317 318 318 320 323 324 324 322 321 320 321 319 319 321 323 325 322 320 320 316 315 312 312 313 311 311 309 310
313 314 316 318 318 319 318 319 320 322 322 321 319 318 316 319 319 321 322 324 324 321 319 318 315 314 314 314 313 312 312 310
312 314 316 318 319 317 316 318 319 320 321 321 320 319 318 319 319 319 321 321 323 323 320 320 318 317 316 315 314 312 312 312
311 314 316 317 318 316 317 317 316 318 319 320 319 316 316 316 317 317 319 319 320 321 322 319 319 319 317 317 315 313 313 313
310 313 315 316 315 316 316 315 314 315 316 317 317 316 316 316 316 317 317 318 317 317 320 319 320 319 319 317 315 313 312 312
310 313 314 315 315 315 316 315 314 313 312 314 315 312 314 317 317 318 318 318 318 318 318 318 318 319 319 318 317 316 315 313
308 312 313 315 315 314 315 315 315 315 313 313 312 312 313 315 317 317 318 319 319 317 317 318 317 318 318 318 318 317 317 316
311 312 314 315 316 316 316 315 315 315 316 312 313 312 311 311 314 314 316 317 317 315 315 317 317 317 317 317 317 317 316 316
310 312 314 315 315 315 314 314 315 315 315 316 312 312 311 310 310 311 314 314 315 314 314 315 315 316 317 316 316 315 315 315
311 312 313 313 314 315 314 315 315 315 316 316 316 315 312 310 310 310 311 313 312 313 316 314 314 315 316 316 315 315 313 313
301 303 304 308 312 314 314 315 316 316 317 316 315 315 314 312 312 312 311 311 311 311 311 314 315 315 314 315 315 315 313 313
297 297 299 301 303 304 305 305 306 307 315 316 315 315 316 316 316 315 314 313 312 313 313 313 313 314 315 315 314 314 315 315
294 294 295 297 297 298 297 298 299 302 304 304 305 309 317 317 317 317 317 316 315 314 313 312 313 313 313 313 314 314 313 313
291 291 291 291 292 292 293 294 295 297 296 297 298 300 303 303 304 306 314 317 317 316 315 314 313 313 303 300 306 312 313 313
289 288 288 288 290 290 289 291 293 292 292 292 292 294 295 296 299 300 299 301 303 305 311 315 316 316 302 300 298 310 312 312
287 287 286 287 289 289 289 290 290 289 288 288 288 289 290 292 292 292 293 296 299 300 301 301 299 296 288 289 290 305 311 313

GFSFLT1_sfc_thetae_075.txt.gz
Theta_e
319 322 324 326 328 328 326 327 326 327 327 326 327 327 327 328 327 326 327 328 329 328 326 323 323 322 320 320 321 323 322 321
316 321 324 325 327 325 325 325 325 325 324 324 323 322 324 324 327 328 327 326 328 325 323 321 322 322 322 321 320 321 320 322
314 320 323 324 323 324 325 325 325 326 326 324 324 323 324 324 327 327 329 326 325 323 321 321 321 323 322 321 320 319 320 321
310 318 321 324 322 323 323 324 325 327 327 326 323 323 323 321 321 323 324 323 322 321 321 320 320 321 319 319 320 319 316 319
308 317 319 322 323 325 324 323 324 326 326 323 321 320 319 321 321 322 324 324 322 321 318 318 319 320 320 319 319 318 317 315
310 316 320 322 324 323 322 322 323 324 325 323 321 321 323 322 322 321 322 324 322 322 319 317 316 318 320 319 319 319 321 320
311 317 320 322 323 321 319 320 320 323 324 324 322 321 320 320 320 321 322 322 322 321 320 318 317 316 316 316 317 320 320 321
313 316 318 320 320 318 318 319 318 320 322 322 322 320 320 320 320 320 320 319 319 321 321 320 319 318 317 317 316 316 318 318
312 317 318 319 319 316 318 317 316 317 319 320 321 320 319 319 320 320 320 320 320 320 321 320 320 320 319 318 317 315 316 318
309 316 318 319 317 316 317 317 315 315 317 319 320 318 318 319 320 321 321 321 320 320 321 319 320 320 319 319 317 316 315 315
312 316 316 318 317 316 317 318 319 317 316 320 321 321 320 319 320 319 319 320 321 320 321 319 318 319 319 319 318 318 316 316
313 314 316 316 316 316 316 317 318 318 317 318 320 320 320 320 318 318 319 319 318 317 319 318 318 319 319 318 318 318 317 317
310 313 314 314 314 315 315 316 316 318 317 317 317 319 319 318 319 320 321 319 319 317 317 318 319 320 321 320 319 317 316 316
299 301 303 307 310 311 310 311 314 317 317 317 317 317 317 317 318 318 319 320 320 319 318 316 317 320 321 319 320 320 319 318
294 295 296 298 299 300 301 304 306 313 316 315 313 316 316 316 318 319 318 318 319 319 319 320 320 319 318 318 319 319 320 320
291 291 292 294 295 298 299 299 300 302 302 302 302 304 306 308 312 315 318 318 318 318 318 318 319 319 318 318 317 316 317 319
289 289 289 290 291 292 295 294 294 295 293 293 295 297 299 300 302 303 304 304 305 312 314 314 313 307 290 292 300 316 317 317
288 287 288 289 290 291 291 291 292 291 290 291 291 293 294 294 296 297 297 299 301 302 300 300 296 290 288 290 290 299 308 313
286 287 288 288 289 289 289 289 288 288 288 288 289 291 291 292 294 295 295 298 297 293 292 290 291 288 287 288 288 296 301 306

GFSFLT1_sfc_thetae_078.txt.gz
Theta_e
316 321 328 332 334 337 336 332 333 333 333 330 329 331 330 329 328 329 329 329 330 330 331 327 327 322 322 327 328 329 327 326
315 320 328 331 334 335 334 330 331 330 329 326 326 327 328 327 329 329 329 328 329 329 327 325 326 321 321 323 328 327 325 327
313 319 327 330 332 334 333 331 330 330 329 326 326 326 327 329 329 329 330 332 329 327 325 324 322 321 321 326 327 325 324 325
312 317 325 329 331 333 332 332 332 331 331 329 331 327 327 326 326 327 328 332 327 326 325 323 323 322 321 324 327 326 321 324
313 315 322 326 330 333 333 332 330 331 332 329 328 324 320 325 326 324 328 327 324 324 324 323 323 324 323 325 326 327 325 321
314 315 319 325 330 331 333 332 329 331 330 329 327 324 323 326 325 323 325 324 322 321 322 321 322 323 326 327 326 325 325 323
314 317 321 325 330 331 330 329 327 329 329 329 326 323 323 325 323 323 322 322 322 322 320 320 320 321 325 326 325 325 325 324
315 317 320 324 327 325 325 328 324 326 328 327 327 327 325 323 324 322 322 321 321 320 320 320 317 319 322 324 324 323 323 323
314 319 321 323 326 321 322 325 322 324 326 326 326 326 323 323 324 326 326 323 324 325 321 319 319 317 318 318 319 319 321 322
315 318 322 324 325 318 321 322 321 322 323 325 327 326 326 324 324 324 322 324 323 323 322 321 320 319 317 317 316 316 317 319
315 319 321 324 321 319 322 322 321 321 322 322 323 325 325 323 323 322 325 324 324 323 322 320 320 320 321 318 316 317 316 316
315 318 320 319 318 319 319 321 321 320 319 321 322 322 323 322 322 321 322 323 323 321 323 322 321 320 319 318 318 316 315 316
302 312 315 316 317 317 318 321 321 322 319 320 321 321 323 323 322 321 322 321 322 322 322 322 320 319 319 319 318 318 316 314
297 299 300 301 307 312 314 317 318 318 318 319 318 318 318 319 321 323 323 322 320 321 321 320 320 320 320 321 322 322 321 320
293 293 295 297 299 300 303 305 312 315 316 313 311 315 317 318 319 321 321 322 321 320 320 320 320 321 321 322 323 323 322 321
290 290 291 292 294 295 297 298 301 302 301 301 301 302 304 306 307 308 314 318 320 322 322 322 322 310 295 299 318 320 320 321
288 289 289 290 291 293 294 294 295 297 295 295 297 299 298 299 300 301 303 304 305 304 301 299 297 293 289 290 293 310 315 317
287 287 288 289 289 290 291 292 293 293 293 294 296 297 296 296 298 299 300 299 297 295 295 294 289 288 287 288 288 295 302 307
287 287 288 288 288 289 290 290 291 291 293 292 293 293 295 298 298 298 297 295 292 290 290 290 288 286 286 287 287 297 301 292

GFSFLT1_sfc_thetae_081.txt.gz
Theta_e
314 317 321 326 332 337 340 339 339 339 336 333 334 331 332 333 332 333 335 335 332 333 330 328 328 327 326 326 326 330 327 326
315 318 322 328 334 336 339 338 338 336 333 331 330 330 331 331 332 331 331 332 334 333 329 326 326 326 325 326 325 326 326 326
314 317 321 329 332 336 337 336 336 335 333 332 331 330 332 332 333 332 331 330 332 328 328 325 326 324 322 322 324 323 325 326
313 314 320 329 331 335 336 335 335 334 333 332 331 328 330 328 330 331 330 332 332 331 327 325 324 323 321 322 323 323 321 325
313 314 318 326 330 335 336 336 334 334 334 330 328 326 323 328 328 330 330 331 331 330 326 324 323 323 321 322 325 324 324 321
313 314 316 325 330 333 336 335 334 334 333 332 329 327 327 329 328 328 327 328 326 325 325 323 323 322 321 322 323 325 325 323
314 315 316 322 329 334 334 334 333 333 333 332 329 328 327 327 326 325 324 324 323 321 323 323 324 323 322 322 324 326 326 326
315 315 316 320 327 332 333 333 330 332 332 330 329 328 328 325 326 325 323 320 320 320 320 320 321 323 324 324 324 325 326 325
319 317 318 322 326 330 331 331 327 331 331 330 329 329 327 328 328 326 325 323 323 321 320 320 319 321 322 324 325 326 326 326
320 318 322 324 328 328 328 329 325 328 330 329 328 327 326 326 327 327 327 327 326 325 321 319 318 318 319 320 321 322 325 325
314 319 322 325 328 324 324 326 323 325 329 328 326 326 326 327 327 326 324 325 325 326 324 321 318 317 318 317 317 317 317 318
305 311 323 325 322 321 323 322 323 323 324 326 324 324 325 326 325 325 324 325 324 323 324 322 320 318 317 316 317 315 314 315
298 302 306 317 318 319 320 322 320 321 323 323 323 323 323 324 323 324 325 323 323 322 322 322 321 320 319 318 316 316 314 314
294 295 297 300 303 309 312 319 320 321 321 321 321 322 323 322 322 322 323 322 321 321 322 322 322 322 321 319 318 318 317 315
291 292 293 295 297 298 300 303 309 315 315 313 313 316 321 321 322 323 323 323 320 320 320 321 321 320 316 317 320 319 319 320
288 289 290 292 293 294 295 297 299 302 303 302 302 303 304 305 306 311 315 311 310 310 316 305 299 296 292 295 305 316 321 321
287 288 289 289 290 291 292 293 294 297 297 297 298 299 300 300 301 303 300 299 299 300 295 294 292 291 288 289 292 308 314 312
287 288 287 287 288 289 290 292 295 294 294 295 297 298 298 299 299 297 295 293 293 292 292 290 287 287 287 289 289 300 298 293
286 286 286 287 288 289 290 290 290 292 292 293 295 297 297 298 297 294 293 291 290 290 290 289 287 286 287 288 289 294 290 287